Powrót do katalogu

STARLINK-34840

AktywnyŁącznośćVLEO
NORAD 66406·PAYLOAD·🇺🇸 United States

Wystrzelony Nov 8, 2025 z Cape Canaveral Space Force Station

Loading…

Następne Przeloty (najbliższe 24 godziny)

TLE

ŚwieżeSource: CelesTrak SupGP

Epoka: Sep 15, 2026, 03:14 UTC

1 66406C 25257AC  26258.13520833 -.00019030  00000+0 -56218-3 0  2588
2 66406  53.1598  52.7244 0001051  79.8578 131.8785 15.34404145    15

Śledź STARLINK-34840 w czasie rzeczywistym z AllMySat

Download on the App Store